DW5963 Weather Reports


Display with metric or nautical units.
time (UTC)temp
F
wind
direction
speed
MPH
gust
MPH
rain 1hr
in
rain 24hr
in
rain mn
in
humidity
%
barometer
mb
20260510023006 52 360 6.0 0.0 0.00 0.00 0.00 36 1017.4
20260510022506 53 360 6.0 0.0 0.00 0.00 0.00 36 1017.3
20260510022005 53 360 6.0 0.0 0.00 0.00 0.00 36 1017.2
20260510021505 54 360 6.0 0.0 0.00 0.00 0.00 35 1017.1
20260510020508 56 360 7.0 0.0 0.00 0.00 0.00 34 1017.0
20260510020005 56 360 8.0 0.0 0.00 0.00 0.00 33 1016.9
20260510015506 57 360 9.0 0.0 0.00 0.00 0.00 33 1016.8
20260510015004 57 360 9.0 0.0 0.00 0.00 0.00 33 1016.8
20260510014504 58 360 9.0 0.0 0.00 0.00 0.00 33 1016.7
20260510014004 58 360 8.0 0.0 0.00 0.00 0.00 32 1016.7
20260510013505 59 360 9.0 0.0 0.00 0.00 0.00 32 1016.7
20260510013007 59 360 11.0 0.0 0.00 0.00 0.00 31 1016.7
20260510012503 60 360 12.0 0.0 0.00 0.00 0.00 31 1016.6
20260510012003 60 360 12.0 0.0 0.00 0.00 0.00 30 1016.6
20260510011506 61 360 13.0 0.0 0.00 0.00 0.00 30 1016.7
20260510010504 61 360 12.0 0.0 0.00 0.00 0.00 30 1016.5
20260510010005 62 360 11.0 0.0 0.00 0.00 0.00 30 1016.5
20260510005502 62 360 11.0 0.0 0.00 0.00 0.00 30 1016.5
20260510005004 62 360 11.0 0.0 0.00 0.00 0.00 30 1016.5
20260510004501 62 360 11.0 0.0 0.00 0.00 0.00 30 1016.4
20260510004003 62 360 13.0 0.0 0.00 0.00 0.00 30 1016.4
20260510003502 62 360 13.0 0.0 0.00 0.00 0.00 30 1016.3
20260510003002 62 360 13.0 0.0 0.00 0.00 0.00 30 1016.3
20260510002502 63 360 13.0 0.0 0.00 0.00 0.00 30 1016.2
20260510002001 63 360 13.0 0.0 0.00 0.00 0.00 30 1016.2
20260510001501 64 360 13.0 0.0 0.00 0.00 0.00 29 1016.2
20260510000501 64 360 13.0 0.0 0.00 0.00 0.00 29 1016.2
20260510000001 64 360 13.0 0.0 0.00 0.00 0.00 28 1016.2
20260509235501 64 360 14.0 0.0 0.00 0.00 0.00 28 1016.2
20260509235002 64 360 15.0 0.0 0.00 0.00 0.00 28 1016.0
20260509234502 64 360 14.0 0.0 0.00 0.00 0.00 28 1016.0
20260509234000 64 360 14.0 0.0 0.00 0.00 0.00 28 1016.1
20260509233601 65 360 15.0 0.0 0.00 0.00 0.00 28 1016.0
20260509233100 64 360 13.0 0.0 0.00 0.00 0.00 30 1015.8
20260509232600 63 360 12.0 0.0 0.00 0.00 0.00 30 1015.8
20260509232100 64 360 12.0 0.0 0.00 0.00 0.00 30 1015.9
20260509231605 65 360 13.0 0.0 0.00 0.00 0.00 29 1015.8
20260509230559 65 360 12.0 0.0 0.00 0.00 0.00 29 1015.7
20260509225559 65 360 14.0 0.0 0.00 0.00 0.00 29 1015.7
20260509225059 66 360 14.0 0.0 0.00 0.00 0.00 29 1015.7
20260509224602 65 360 13.0 0.0 0.00 0.00 0.00 30 1015.7
20260509224059 65 360 13.0 0.0 0.00 0.00 0.00 30 1015.8
20260509223559 64 360 16.0 0.0 0.00 0.00 0.00 31 1015.9
20260509223059 65 360 14.0 0.0 0.00 0.00 0.00 29 1015.9
20260509222700 65 360 12.0 0.0 0.00 0.00 0.00 29 1015.7
20260509222058 65 360 12.0 0.0 0.00 0.00 0.00 30 1015.8
20260509221600 65 360 13.0 0.0 0.00 0.00 0.00 28 1015.9
20260509220557 65 360 14.0 0.0 0.00 0.00 0.00 31 1015.7
20260509220107 65 360 14.0 0.0 0.00 0.00 0.00 30 1015.9
20260509215559 65 360 12.0 0.0 0.00 0.00 0.00 30 1016.0
20260509215058 65 360 12.0 0.0 0.00 0.00 0.00 30 1015.9
20260509214601 65 360 13.0 0.0 0.00 0.00 0.00 31 1016.2
20260509214057 64 360 13.0 0.0 0.00 0.00 0.00 31 1016.1
20260509213600 64 360 12.0 0.0 0.00 0.00 0.00 32 1016.2
20260509213122 63 360 12.0 0.0 0.00 0.00 0.00 33 1016.2
20260509212559 62 360 12.0 0.0 0.00 0.00 0.00 33 1016.2
20260509212057 64 360 12.0 0.0 0.00 0.00 0.00 31 1016.2
20260509211554 64 360 13.0 0.0 0.00 0.00 0.00 32 1016.0
20260509210554 64 360 13.0 0.0 0.00 0.00 0.00 32 1016.1
20260509210104 63 360 12.0 0.0 0.00 0.00 0.00 33 1016.2
20260509205553 62 360 12.0 0.0 0.00 0.00 0.00 34 1016.2
20260509205053 62 360 12.0 0.0 0.00 0.00 0.00 34 1016.3
20260509204553 64 360 12.0 0.0 0.00 0.00 0.00 32 1016.3
20260509204053 63 360 14.0 0.0 0.00 0.00 0.00 32 1016.4
20260509203553 64 360 14.0 0.0 0.00 0.00 0.00 32 1016.4
20260509203052 63 360 14.0 0.0 0.00 0.00 0.00 33 1016.3
20260509202552 62 360 13.0 0.0 0.00 0.00 0.00 35 1016.4
20260509202052 62 360 13.0 0.0 0.00 0.00 0.00 34 1016.4
20260509201552 63 360 15.0 0.0 0.00 0.00 0.00 33 1016.5
20260509200554 62 360 13.0 0.0 0.00 0.00 0.00 34 1016.5
20260509200100 63 360 15.0 0.0 0.00 0.00 0.00 34 1016.6
20260509195553 62 360 14.0 0.0 0.00 0.00 0.00 35 1016.5
20260509195055 63 360 14.0 0.0 0.00 0.00 0.00 34 1016.5
20260509194550 63 360 14.0 0.0 0.00 0.00 0.00 34 1016.5
20260509194049 63 360 13.0 0.0 0.00 0.00 0.00 35 1016.5
20260509193549 62 360 14.0 0.0 0.00 0.00 0.00 35 1016.5
20260509193049 62 360 12.0 0.0 0.00 0.00 0.00 36 1016.5
20260509192550 61 360 11.0 0.0 0.00 0.00 0.00 36 1016.4
20260509192048 62 360 11.0 0.0 0.00 0.00 0.00 37 1016.5
20260509191548 62 360 10.0 0.0 0.00 0.00 0.00 36 1016.5
20260509190546 61 360 11.0 0.0 0.00 0.00 0.00 38 1016.6
20260509190046 60 360 10.0 0.0 0.00 0.00 0.00 38 1016.5
20260509185545 61 360 10.0 0.0 0.00 0.00 0.00 39 1016.5
20260509185045 60 360 10.0 0.0 0.00 0.00 0.00 39 1016.5
20260509184552 59 360 9.0 0.0 0.00 0.00 0.00 39 1016.6
20260509184043 59 360 10.0 0.0 0.00 0.00 0.00 39 1016.6
20260509183544 60 360 12.0 0.0 0.00 0.00 0.00 40 1016.7
20260509183043 59 360 10.0 0.0 0.00 0.00 0.00 40 1016.6
20260509182541 58 360 10.0 0.0 0.00 0.00 0.00 41 1016.6
20260509182040 58 360 11.0 0.0 0.00 0.00 0.00 42 1016.6
20260509181552 58 360 12.0 0.0 0.00 0.00 0.00 40 1016.5
20260509180540 58 360 12.0 0.0 0.00 0.00 0.00 40 1016.5
20260509180046 57 360 12.0 0.0 0.00 0.00 0.00 41 1016.6
20260509175539 57 360 11.0 0.0 0.00 0.00 0.00 42 1016.6
20260509175039 57 360 10.0 0.0 0.00 0.00 0.00 42 1016.6
20260509174537 57 360 9.0 0.0 0.00 0.00 0.00 44 1016.7
20260509174036 56 360 8.0 0.0 0.00 0.00 0.00 44 1016.7
20260509173536 56 360 9.0 0.0 0.00 0.00 0.00 45 1016.7
20260509173040 56 360 10.0 0.0 0.00 0.00 0.00 44 1016.8
20260509172537 56 360 9.0 0.0 0.00 0.00 0.00 46 1016.6
20260509172035 56 360 10.0 0.0 0.00 0.00 0.00 46 1016.6
20260509171537 56 360 10.0 0.0 0.00 0.00 0.00 45 1016.7
20260509170533 54 360 11.0 0.0 0.00 0.00 0.00 46 1016.6
20260509170042 55 360 12.0 0.0 0.00 0.00 0.00 45 1016.6
20260509165532 54 360 9.0 0.0 0.00 0.00 0.00 47 1016.6
20260509165031 54 360 9.0 0.0 0.00 0.00 0.00 49 1016.6
20260509164537 54 360 9.0 0.0 0.00 0.00 0.00 48 1016.7
20260509164032 54 360 9.0 0.0 0.00 0.00 0.00 50 1016.6
20260509163529 54 360 10.0 0.0 0.00 0.00 0.00 52 1016.6
20260509163032 53 360 10.0 0.0 0.00 0.00 0.00 51 1016.6
20260509162528 53 360 9.0 0.0 0.00 0.00 0.00 53 1016.6
20260509162026 53 360 7.0 0.0 0.00 0.00 0.00 55 1016.6
20260509161532 52 360 5.0 0.0 0.00 0.00 0.00 59 1016.6
20260509160526 51 360 3.0 0.0 0.00 0.00 0.00 64 1016.6
20260509160031 50 360 6.0 0.0 0.00 0.00 0.00 63 1016.6
20260509155524 50 360 8.0 0.0 0.00 0.00 0.00 63 1016.7
20260509155023 50 360 8.0 0.0 0.00 0.00 0.00 64 1016.6
20260509154522 50 360 8.0 0.0 0.00 0.00 0.00 67 1016.5
20260509154022 49 360 5.0 0.0 0.00 0.00 0.00 68 1016.5
20260509153523 49 360 5.0 0.0 0.00 0.00 0.00 68 1016.6
20260509153019 49 360 7.0 0.0 0.00 0.00 0.00 68 1016.6
20260509152518 48 360 7.0 0.0 0.00 0.00 0.00 68 1016.5
20260509152018 48 360 7.0 0.0 0.00 0.00 0.00 70 1016.6
20260509151517 48 360 7.0 0.0 0.00 0.00 0.00 72 1016.5
20260509150517 47 360 7.0 0.0 0.00 0.00 0.00 73 1016.4
20260509150015 47 360 7.0 0.0 0.00 0.00 0.00 74 1016.5
20260509145515 47 360 7.0 0.0 0.00 0.00 0.00 75 1016.5
20260509145013 46 360 6.0 0.0 0.00 0.00 0.00 76 1016.4
20260509144511 46 360 6.0 0.0 0.00 0.00 0.00 78 1016.3
20260509144010 45 360 6.0 0.0 0.00 0.00 0.00 78 1016.3
20260509143509 45 360 6.0 0.0 0.00 0.00 0.00 79 1016.3
20260509143009 45 360 5.0 0.0 0.00 0.00 0.00 80 1016.3
20260509142509 45 360 5.0 0.0 0.00 0.00 0.00 81 1016.3
20260509142008 44 360 4.0 0.0 0.00 0.00 0.00 82 1016.3
20260509141508 44 360 3.0 0.0 0.00 0.00 0.00 82 1016.2
20260509140508 43 360 4.0 0.0 0.00 0.00 0.00 83 1016.1
20260509140007 43 360 4.0 0.0 0.00 0.00 0.00 83 1016.1
20260509135510 43 360 4.0 0.0 0.00 0.00 0.00 84 1016.0
20260509135006 42 360 4.0 0.0 0.00 0.00 0.00 85 1015.9
20260509134504 42 360 4.0 0.0 0.00 0.00 0.00 85 1015.8
20260509134004 42 360 3.0 0.0 0.00 0.00 0.00 85 1015.8
20260509133504 41 360 3.0 0.0 0.00 0.00 0.00 86 1015.7
20260509133004 41 360 2.0 0.0 0.00 0.00 0.00 86 1015.6
20260509132503 41 360 3.0 0.0 0.00 0.00 0.00 87 1015.6
20260509132004 40 360 4.0 0.0 0.00 0.00 0.00 87 1015.5
20260509131501 40 360 5.0 0.0 0.00 0.00 0.00 88 1015.4
20260509130502 39 360 5.0 0.0 0.00 0.00 0.00 88 1015.3
20260509130002 39 360 4.0 0.0 0.00 0.00 0.00 89 1015.2
20260509125601 39 360 3.0 0.0 0.00 0.00 0.00 89 1015.2
20260509125059 38 360 2.0 0.0 0.00 0.00 0.00 89 1015.1
20260509124617 38 360 2.0 0.0 0.00 0.00 0.00 90 1015.0
20260509124100 37 360 1.0 0.0 0.00 0.00 0.00 90 1014.9
20260509123600 37 360 0.0 0.0 0.00 0.00 0.00 90 1014.7
20260509123058 36 360 1.0 0.0 0.00 0.00 0.00 89 1014.8
20260509122556 36 360 2.0 0.0 0.00 0.00 0.00 90 1014.7
20260509122055 35 360 1.0 0.0 0.00 0.00 0.00 89 1014.5
20260509121606 35 360 1.0 0.0 0.00 0.00 0.00 89 1014.4
20260509120555 34 360 2.0 0.0 0.00 0.00 0.00 89 1014.2
20260509120111 34 360 2.0 0.0 0.00 0.00 0.00 88 1014.1
20260509115553 35 360 3.0 0.0 0.00 0.00 0.00 89 1014.0
20260509115053 35 360 3.0 0.0 0.00 0.00 0.00 89 1014.0
20260509114552 35 360 3.0 0.0 0.00 0.00 0.00 90 1014.0
20260509114051 34 360 1.0 0.0 0.00 0.00 0.00 90 1013.9
20260509113550 33 360 0.0 0.0 0.00 0.00 0.00 90 1013.8
20260509113054 33 360 0.0 0.0 0.00 0.00 0.00 90 1013.7
20260509112548 32 360 1.0 0.0 0.00 0.00 0.00 90 1013.6
20260509112048 31 360 1.0 0.0 0.00 0.00 0.00 90 1013.4
20260509111547 31 360 1.0 0.0 0.00 0.00 0.00 89 1013.4
20260509110546 31 360 0.0 0.0 0.00 0.00 0.00 89 1013.2
20260509110047 31 360 1.0 0.0 0.00 0.00 0.00 88 1013.2
20260509105547 32 360 2.0 0.0 0.00 0.00 0.00 88 1013.2
20260509105045 32 360 2.0 0.0 0.00 0.00 0.00 88 1013.1
20260509104543 33 360 2.0 0.0 0.00 0.00 0.00 88 1013.1
20260509104042 33 360 1.0 0.0 0.00 0.00 0.00 89 1013.0
20260509103541 33 360 0.0 0.0 0.00 0.00 0.00 88 1012.9
20260509103041 33 360 0.0 0.0 0.00 0.00 0.00 88 1012.8
20260509102540 33 360 1.0 0.0 0.00 0.00 0.00 88 1012.8
20260509102040 33 360 1.0 0.0 0.00 0.00 0.00 88 1012.7
20260509101550 33 360 1.0 0.0 0.00 0.00 0.00 87 1012.7
20260509100536 34 360 2.0 0.0 0.00 0.00 0.00 88 1012.6
20260509100042 34 360 3.0 0.0 0.00 0.00 0.00 88 1012.6
20260509095536 34 360 3.0 0.0 0.00 0.00 0.00 88 1012.5
20260509095034 35 360 2.0 0.0 0.00 0.00 0.00 87 1012.5
20260509094533 35 360 1.0 0.0 0.00 0.00 0.00 87 1012.4
20260509094032 35 360 1.0 0.0 0.00 0.00 0.00 87 1012.4
20260509093531 36 360 0.0 0.0 0.00 0.00 0.00 88 1012.3
20260509093031 36 360 0.0 0.0 0.00 0.00 0.00 87 1012.2
20260509092530 36 360 1.0 0.0 0.00 0.00 0.00 87 1012.0
20260509092029 36 360 2.0 0.0 0.00 0.00 0.00 87 1011.9
20260509091533 36 360 3.0 0.0 0.00 0.00 0.00 88 1011.8
20260509090528 36 360 3.0 0.0 0.00 0.00 0.00 88 1011.7
20260509090028 36 360 3.0 0.0 0.00 0.00 0.00 88 1011.6
20260509085527 37 360 3.0 0.0 0.00 0.00 0.00 88 1011.5
20260509085026 36 360 3.0 0.0 0.00 0.00 0.00 88 1011.4
20260509084530 37 360 3.0 0.0 0.00 0.00 0.00 88 1011.4
20260509084030 37 360 3.0 0.0 0.00 0.00 0.00 87 1011.3
20260509083526 37 360 3.0 0.0 0.00 0.00 0.00 88 1011.3
20260509083025 37 360 3.0 0.0 0.00 0.00 0.00 88 1011.3
20260509082524 36 360 3.0 0.0 0.00 0.00 0.00 87 1011.1
20260509082025 36 360 3.0 0.0 0.00 0.00 0.00 86 1011.0
20260509081522 37 360 2.0 0.0 0.00 0.00 0.00 86 1010.9
20260509080521 38 360 2.0 0.0 0.00 0.00 0.00 86 1010.8
20260509080021 38 360 2.0 0.0 0.00 0.00 0.00 85 1010.7
20260509075520 38 360 2.0 0.0 0.00 0.00 0.00 84 1010.6
20260509075021 39 360 1.0 0.0 0.00 0.00 0.00 84 1010.6
20260509074517 40 360 2.0 0.0 0.00 0.00 0.00 85 1010.5
20260509074015 40 360 3.0 0.0 0.00 0.00 0.00 84 1010.5
20260509073519 41 360 3.0 0.0 0.00 0.00 0.00 85 1010.4
20260509073023 41 360 4.0 0.0 0.00 0.00 0.00 84 1010.3
20260509072516 41 360 4.0 0.0 0.00 0.00 0.00 84 1010.3
20260509072014 42 360 4.0 0.0 0.00 0.00 0.00 84 1010.2
20260509071512 42 360 4.0 0.0 0.00 0.00 0.00 85 1010.0
20260509070510 42 360 4.0 0.0 0.00 0.00 0.00 85 1010.1
20260509070008 42 360 3.0 0.0 0.00 0.00 0.00 85 1010.1
20260509065507 42 360 2.0 0.0 0.00 0.00 0.00 84 1009.9
20260509065006 43 360 3.0 0.0 0.00 0.00 0.00 84 1009.9
20260509064505 44 360 3.0 0.0 0.00 0.00 0.00 84 1009.9
20260509064004 44 360 3.0 0.0 0.00 0.00 0.00 84 1009.9
20260509063501 45 360 3.0 0.0 0.00 0.00 0.00 84 1009.9
20260509063001 46 360 4.0 0.0 0.00 0.00 0.02 84 1009.9
20260509062501 46 360 4.0 0.0 0.00 0.00 0.02 84 1009.8
20260509062000 46 360 5.0 0.0 0.00 0.00 0.02 85 1009.6
20260509061500 46 360 4.0 0.0 0.00 0.00 0.02 85 1009.5
20260509060501 47 360 4.0 0.0 0.00 0.00 0.02 85 1009.3
20260509060002 47 360 5.0 0.0 0.00 0.00 0.02 86 1009.4
20260509055504 47 360 5.0 0.0 0.00 0.00 0.02 86 1009.3
20260509055001 47 360 4.0 0.0 0.00 0.00 0.02 87 1009.1
20260509054614 47 360 3.0 0.0 0.00 0.00 0.02 88 1009.1
20260509054501 48 360 3.0 0.0 0.00 0.00 0.02 88 1009.0
20260509054100 48 360 3.0 0.0 0.00 0.00 0.02 88 1009.0
20260509054001 48 360 3.0 0.0 0.00 0.00 0.02 88 1009.0
20260509053602 48 360 4.0 0.0 0.00 0.00 0.02 88 1009.0
20260509053105 48 360 4.0 0.0 0.00 0.00 0.02 87 1009.1
20260509052601 48 360 4.0 0.0 0.00 0.00 0.02 87 1009.1
20260509052059 49 360 4.0 0.0 0.00 0.00 0.02 87 1009.1
20260509051600 48 360 4.0 0.0 0.00 0.00 0.02 86 1009.0
20260509051159 49 360 2.0 0.0 0.00 0.00 0.02 84 1008.8
20260509050600 49 360 2.0 0.0 0.00 0.00 0.02 84 1008.7
20260509050059 49 360 1.0 0.0 0.00 0.00 0.02 83 1008.5
20260509045559 49 360 0.0 0.0 0.00 0.00 0.02 83 1008.4
20260509045059 50 360 1.0 0.0 0.00 0.00 0.02 82 1008.4
20260509044559 50 360 2.0 0.0 0.00 0.00 0.02 81 1008.4
20260509044100 50 360 2.0 0.0 0.00 0.00 0.02 80 1008.1
20260509043558 51 360 2.0 0.0 0.00 0.00 0.02 79 1008.2
20260509043059 51 360 2.0 0.0 0.00 0.00 0.02 78 1008.3
20260509042603 51 360 2.0 0.0 0.00 0.00 0.01 77 1008.5
20260509042100 51 360 2.0 0.0 0.00 0.00 0.01 76 1008.6
20260509041559 51 360 3.0 0.0 0.00 0.00 0.00 76 1008.6
20260509041159 52 360 4.0 0.0 0.00 0.00 0.00 74 1008.5
20260509040558 52 360 5.0 0.0 0.00 0.00 0.00 73 1008.4
20260509040126 52 360 7.0 0.0 0.00 0.00 0.00 72 1008.2
20260509035558 53 360 8.0 0.0 0.00 0.00 0.00 70 1008.1
20260509035057 53 360 8.0 0.0 0.00 0.00 0.00 68 1008.1
20260509034601 53 360 8.0 0.0 0.00 0.00 0.00 68 1007.9
20260509034056 53 360 7.0 0.0 0.00 0.00 0.00 67 1007.8
20260509033557 53 360 7.0 0.0 0.00 0.00 0.00 67 1007.7
20260509033057 53 360 7.0 0.0 0.00 0.00 0.00 67 1007.7
20260509032557 53 360 8.0 0.0 0.00 0.00 0.00 66 1007.6
20260509032056 53 360 8.0 0.0 0.00 0.00 0.00 65 1007.8
20260509031559 54 360 8.0 0.0 0.00 0.00 0.00 64 1007.7
20260509031159 55 360 8.0 0.0 0.00 0.00 0.00 62 1008.0
20260509030558 55 360 9.0 0.0 0.00 0.00 0.00 62 1008.2
20260509030100 55 360 9.0 0.0 0.00 0.00 0.00 61 1008.2
20260509025557 55 360 9.0 0.0 0.00 0.00 0.00 61 1008.1
20260509025057 55 360 10.0 0.0 0.00 0.00 0.00 62 1007.9
20260509024558 55 360 11.0 0.0 0.00 0.00 0.00 61 1007.8
20260509024057 55 360 11.0 0.0 0.00 0.00 0.00 61 1007.5
20260509023602 55 360 11.0 0.0 0.00 0.00 0.00 63 1007.3